Regional Weather Roundup
Issued by NWS

Home | Current Version | Previous Version | Text Only | Print | Product List | Glossary On
Versions: 1 2 3 4 5 6 7 8 9 10 11 12 13 14 15 16 17 18 19 20 21 22 23 24 25 26 27 28 29 30 31 32 33 34 35 36 37 38 39 40 41 42 43 44 45 46 47 48 49 50
000
ASUS42 KKEY 031810
RWRKEY

FLORIDA REGIONAL WEATHER ROUNDUP FOR THE FLORIDA KEYS
NATIONAL WEATHER SERVICE KEY WEST FLORIDA
100 PM EST TUE MAR 03 2015

...SOUTH FLORIDA AND THE KEYS...

CITY           SKY/WX    TMP DP  RH WIND       PRES   REMARKS
FORT MYERS     PTSUNNY   83  63  50 SE13      30.15F
SW REGIONAL AP PTSUNNY   83  63  50 E13       30.16F
NAPLES         MOSUNNY   83  64  52 E12       30.15F
MIAMI          PTSUNNY   80  64  58 E17G24    30.18F
WEST KENDALL   PTSUNNY   79  65  62 E16       30.17F
HOMESTEAD      SUNNY     79  68  67 E12       30.17F
MARATHON       MOSUNNY   81  69  67 E14G21    30.15F
BOCA CHICA NAS MOSUNNY   81  68  64 E15       30.15F
KEY WEST INTL  SUNNY     80  70  71 E15G23    30.15F

...INTERNATIONAL WEATHER...

CITY           SKY/WX    TMP DP  RH WIND       PRES   REMARKS
NASSAU BAHAMAS PTSUNNY   77  72  83 E9        30.21S
CANCUN MEXICO  PTSUNNY   82  72  69 E17       30.08F
COZUMEL MEXICO MOSUNNY   77  70  78 E14       30.07F

ADJACENT COASTAL WATERS...

STATION/POSITION TIME  SKY/WX   TEMP    WIND        PRES    WAVE
                                AIR SEA DIR/SP/G            HT/PER
                 (UTC)          (F)     (DEG/KT/KT) (MB)    (FT/S)
PULASKI SHOAL LI 1700            73      90/ 13/ 15 1021.3F
SAND KEY         1750            75     100/ 14/ 16 1020.8F
SOMBRERO KEY     1800            76     100/ 16/ 17 1021.5F
LONG KEY         1700            76 77  100/ 14/ 16 1022.9F
MOLASSES REEF    1800            75 76  100/ 16/ 18 1021.2F
FOWEY ROCKS      NOT AVBL
Buoy 42080       NOT AVBL

$$


USA.gov is the U.S. government's official web portal to all federal, state and local government web resources and services.